EW2964 Weather Reports


Display with metric or nautical units.
time (UTC)temp
F
wind
direction
speed
MPH
gust
MPH
rain 1hr
in
rain 24hr
in
rain mn
in
humidity
%
barometer
mb
20260509012509 53 288 2.0 3.0 0.00 0.00 0.00 68 1012.3
20260509012007 53 304 1.0 3.0 0.00 0.00 0.00 67 1012.1
20260509011528 53 304 1.0 3.0 0.00 0.00 0.00 66 1012.0
20260509011011 54 326 1.0 3.0 0.00 0.00 0.00 64 1012.1
20260509010509 54 327 2.0 3.0 0.00 0.00 0.00 62 1012.2
20260509010035 55 259 0.0 6.0 0.00 0.00 0.00 60 1012.2
20260509005506 55 258 1.0 7.0 0.00 0.00 0.00 59 1012.1
20260509005009 55 267 4.0 7.0 0.00 0.00 0.00 56 1012.2
20260509004530 55 271 2.0 6.0 0.00 0.00 0.00 57 1012.2
20260509004007 55 291 3.0 6.0 0.00 0.00 0.00 57 1012.2
20260509003507 56 266 2.0 4.0 0.00 0.00 0.00 57 1012.2
20260509003021 56 290 1.0 4.0 0.00 0.00 0.00 55 1012.2
20260509002510 57 271 1.0 4.0 0.00 0.00 0.00 54 1012.3
20260509002008 58 271 1.0 3.0 0.00 0.00 0.00 52 1012.3
20260509001524 59 273 0.0 2.0 0.00 0.00 0.00 49 1012.3
20260509001006 60 269 0.0 2.0 0.00 0.00 0.00 48 1012.3
20260509000512 60 269 1.0 4.0 0.00 0.00 0.00 45 1012.3
20260509000027 60 279 0.0 4.0 0.00 0.00 0.00 43 1012.4
20260508235513 61 232 2.0 3.0 0.00 0.00 0.00 42 1012.4
20260508235008 62 269 0.0 3.0 0.00 0.00 0.00 46 1012.4
20260508234528 62 297 1.0 3.0 0.00 0.00 0.00 40 1012.3
20260508234011 63 284 1.0 6.0 0.00 0.00 0.00 37 1012.3
20260508233512 63 271 1.0 10.0 0.00 0.00 0.00 38 1012.3
20260508233027 63 306 4.0 10.0 0.00 0.00 0.00 36 1012.2
20260508232510 63 343 2.0 8.0 0.00 0.00 0.00 39 1012.2
20260508232006 63 248 3.0 8.0 0.00 0.00 0.00 37 1012.1
20260508231518 64 328 3.0 7.0 0.00 0.00 0.00 37 1012.1
20260508231008 64 287 2.0 11.0 0.00 0.00 0.00 40 1012.0
20260508230508 64 306 5.0 11.0 0.00 0.00 0.00 35 1012.0
20260508230025 65 266 4.0 10.0 0.00 0.00 0.00 37 1012.0
20260508225513 65 245 3.0 10.0 0.00 0.00 0.00 39 1012.0
20260508225012 64 294 3.0 10.0 0.00 0.00 0.00 37 1011.9
20260508224528 64 347 4.0 11.0 0.00 0.00 0.00 38 1011.9
20260508224009 64 234 3.0 11.0 0.00 0.00 0.00 36 1011.9
20260508223510 64 296 4.0 11.0 0.00 0.00 0.00 38 1011.9
20260508223039 64 294 4.0 12.0 0.00 0.00 0.00 36 1012.0
20260508222508 64 314 4.0 12.0 0.00 0.00 0.00 38 1012.0
20260508222010 64 288 5.0 12.0 0.00 0.00 0.00 37 1012.1
20260508221527 64 304 2.0 14.0 0.00 0.00 0.00 38 1012.1
20260508221013 65 63 6.0 14.0 0.00 0.00 0.00 37 1012.1
20260508220507 65 166 5.0 13.0 0.00 0.00 0.00 36 1012.0
20260508220002 64 314 3.0 13.0 0.00 0.00 0.00 36 1012.0
20260508215505 64 254 5.0 11.0 0.00 0.00 0.00 39 1012.0
20260508215003 64 286 4.0 11.0 0.00 0.00 0.00 39 1012.0
20260508214506 64 269 6.0 11.0 0.00 0.00 0.00 37 1011.9
20260508214003 64 243 3.0 12.0 0.00 0.00 0.00 38 1012.1
20260508213505 64 296 6.0 12.0 0.00 0.00 0.00 37 1012.1
20260508213015 64 317 5.0 11.0 0.00 0.00 0.00 38 1012.0
20260508212507 64 321 6.0 11.0 0.00 0.00 0.00 37 1012.0
20260508212009 64 272 4.0 12.0 0.00 0.00 0.00 37 1012.1
20260508211515 65 250 6.0 12.0 0.00 0.00 0.00 37 1012.2
20260508211005 64 285 3.0 13.0 0.00 0.00 0.00 36 1012.2
20260508210506 64 242 5.0 13.0 0.00 0.00 0.00 36 1012.3
20260508210003 64 294 5.0 13.0 0.00 0.00 0.00 39 1012.2
20260508205505 63 267 6.0 13.0 0.00 0.00 0.00 38 1012.3
20260508205002 63 309 5.0 10.0 0.00 0.00 0.00 38 1012.3
20260508204517 63 290 5.0 15.0 0.00 0.00 0.00 41 1012.4
20260508204008 62 302 5.0 15.0 0.00 0.00 0.00 39 1012.4
20260508203502 63 270 8.0 13.0 0.00 0.00 0.00 39 1012.5
20260508203007 63 302 6.0 12.0 0.00 0.00 0.00 40 1012.7
20260508202504 63 285 5.0 10.0 0.00 0.00 0.00 39 1012.6
20260508202005 63 312 4.0 13.0 0.00 0.00 0.00 40 1012.6
20260508201513 64 216 7.0 13.0 0.00 0.00 0.00 38 1012.7
20260508201006 64 342 6.0 12.0 0.00 0.00 0.00 42 1012.7
20260508200506 63 326 2.0 13.0 0.00 0.00 0.00 41 1012.7
20260508200019 62 333 6.0 13.0 0.00 0.00 0.00 44 1012.9
20260508195506 63 333 8.0 13.0 0.00 0.00 0.00 39 1013.1
20260508195006 63 295 4.0 17.0 0.00 0.00 0.00 38 1013.1
20260508194504 63 294 11.0 19.0 0.00 0.00 0.00 42 1013.2
20260508194002 63 286 12.0 21.0 0.00 0.00 0.00 41 1013.3
20260508193503 62 335 12.0 21.0 0.00 0.00 0.00 41 1013.4
20260508193005 62 342 12.0 24.0 0.00 0.00 0.00 41 1013.3
20260508192502 62 306 13.0 24.0 0.00 0.00 0.00 43 1013.5
20260508192003 63 330 13.0 24.0 0.00 0.00 0.00 40 1013.4
20260508191511 63 304 9.0 17.0 0.00 0.00 0.00 42 1013.6
20260508191007 63 323 8.0 17.0 0.00 0.00 0.00 41 1013.7
20260508190506 63 281 8.0 17.0 0.00 0.00 0.00 45 1013.7
20260508190022 63 317 8.0 14.0 0.00 0.00 0.00 41 1013.8
20260508185507 62 221 5.0 18.0 0.00 0.00 0.00 41 1013.9
20260508185006 62 319 6.0 18.0 0.00 0.00 0.00 41 1013.9
20260508184523 62 175 5.0 17.0 0.00 0.00 0.00 40 1013.9
20260508184010 62 309 10.0 17.0 0.00 0.00 0.00 39 1014.0
20260508183507 62 277 4.0 13.0 0.00 0.00 0.00 42 1013.9
20260508183025 62 360 4.0 12.0 0.00 0.00 0.00 42 1014.0
20260508182504 61 285 7.0 12.0 0.00 0.00 0.00 41 1014.2
20260508182006 61 284 6.0 13.0 0.00 0.00 0.00 40 1014.3
20260508181507 62 211 8.0 16.0 0.00 0.00 0.00 40 1014.4
20260508181005 62 240 9.0 16.0 0.00 0.00 0.00 40 1014.3
20260508180507 62 320 6.0 13.0 0.00 0.00 0.00 44 1014.4
20260508180018 61 177 4.0 16.0 0.00 0.00 0.00 41 1014.5
20260508175507 61 307 8.0 16.0 0.00 0.00 0.00 43 1014.7
20260508175008 60 320 6.0 16.0 0.00 0.00 0.00 41 1014.7
20260508174517 60 299 6.0 16.0 0.00 0.00 0.00 42 1014.9
20260508174008 60 315 5.0 13.0 0.00 0.00 0.00 40 1014.8
20260508173511 61 321 6.0 13.0 0.00 0.00 0.00 40 1014.9
20260508173023 60 322 7.0 18.0 0.00 0.00 0.00 43 1015.0
20260508172506 60 290 10.0 18.0 0.00 0.00 0.00 40 1015.1
20260508172013 61 290 7.0 14.0 0.00 0.00 0.00 42 1015.2
20260508171536 60 298 6.0 14.0 0.00 0.00 0.00 43 1015.1
20260508171003 60 319 7.0 12.0 0.00 0.00 0.00 44 1015.2
20260508170504 60 273 2.0 19.0 0.00 0.00 0.00 45 1015.4
20260508170012 59 360 7.0 19.0 0.00 0.00 0.00 42 1015.4
20260508165507 59 273 7.0 19.0 0.00 0.00 0.00 43 1015.6
20260508165006 59 301 5.0 18.0 0.00 0.00 0.00 44 1015.7
20260508164517 59 320 4.0 13.0 0.00 0.00 0.00 40 1015.7
20260508164010 59 299 5.0 13.0 0.00 0.00 0.00 41 1015.7
20260508163506 59 336 4.0 12.0 0.00 0.00 0.00 41 1015.7
20260508163020 59 324 4.0 14.0 0.00 0.00 0.00 42 1015.7
20260508162507 58 254 10.0 15.0 0.00 0.00 0.00 42 1015.9
20260508162008 58 306 10.0 20.0 0.00 0.00 0.00 42 1016.0
20260508161527 58 314 9.0 20.0 0.00 0.00 0.00 43 1016.0
20260508161008 58 335 10.0 18.0 0.00 0.00 0.00 44 1016.1
20260508160509 57 308 10.0 18.0 0.00 0.00 0.00 42 1016.2
20260508160049 57 315 8.0 14.0 0.00 0.00 0.00 41 1016.2
20260508155504 57 67 6.0 17.0 0.00 0.00 0.00 41 1016.1
20260508155004 57 338 9.0 19.0 0.00 0.00 0.00 44 1016.3
20260508154514 57 291 9.0 19.0 0.00 0.00 0.00 40 1016.1
20260508154006 56 280 4.0 16.0 0.00 0.00 0.00 43 1016.2
20260508153506 56 296 7.0 13.0 0.00 0.00 0.00 49 1016.1
20260508153019 56 333 9.0 16.0 0.00 0.00 0.00 44 1016.1
20260508152509 56 284 8.0 17.0 0.00 0.00 0.00 44 1016.2
20260508152012 56 325 10.0 17.0 0.00 0.00 0.00 44 1016.0
20260508151523 56 329 5.0 16.0 0.00 0.00 0.00 44 1016.0
20260508151009 56 273 6.0 16.0 0.00 0.00 0.00 46 1015.9
20260508150502 55 55 7.0 16.0 0.00 0.00 0.00 43 1016.1
20260508150014 55 161 9.0 15.0 0.00 0.00 0.00 45 1016.2
20260508145504 55 189 6.0 15.0 0.00 0.00 0.00 45 1016.2
20260508145008 55 243 4.0 15.0 0.00 0.00 0.00 48 1016.3
20260508144511 55 324 9.0 15.0 0.00 0.00 0.00 47 1016.4
20260508144003 55 291 6.0 11.0 0.00 0.00 0.00 48 1016.4
20260508143509 54 190 2.0 20.0 0.00 0.00 0.00 46 1016.4
20260508143014 53 235 7.0 20.0 0.00 0.00 0.00 48 1016.5
20260508142506 54 345 12.0 20.0 0.00 0.00 0.00 47 1016.5
20260508142006 54 328 6.0 14.0 0.00 0.00 0.00 49 1016.5
20260508141526 53 299 5.0 14.0 0.00 0.00 0.00 50 1016.5
20260508141010 53 311 8.0 14.0 0.00 0.00 0.00 47 1016.6
20260508140507 53 273 7.0 13.0 0.00 0.00 0.00 49 1016.5
20260508140024 53 314 4.0 13.0 0.00 0.00 0.00 48 1016.3
20260508135510 53 288 4.0 13.0 0.00 0.00 0.00 49 1016.4
20260508135009 53 340 6.0 13.0 0.00 0.00 0.00 48 1016.3
20260508134517 53 325 5.0 11.0 0.00 0.00 0.00 49 1016.3
20260508134004 53 329 0.0 8.0 0.00 0.00 0.00 51 1016.5
20260508133504 52 138 2.0 9.0 0.00 0.00 0.00 47 1016.4
20260508133016 52 239 4.0 9.0 0.00 0.00 0.00 49 1016.5
20260508132504 51 310 1.0 7.0 0.00 0.00 0.00 52 1016.5
20260508132007 50 311 1.0 7.0 0.00 0.00 0.00 59 1016.5
20260508131516 49 213 3.0 7.0 0.00 0.00 0.00 57 1016.5
20260508131007 49 219 2.0 6.0 0.00 0.00 0.00 62 1016.6
20260508130507 47 153 1.0 4.0 0.00 0.00 0.00 65 1016.6
20260508130023 46 27 1.0 4.0 0.00 0.00 0.00 70 1016.6
20260508125511 45 40 2.0 4.0 0.00 0.00 0.00 75 1016.6
20260508125011 44 43 2.0 4.0 0.00 0.00 0.00 75 1016.6
20260508124526 42 55 1.0 3.0 0.00 0.00 0.00 81 1016.5
20260508124012 41 5 1.0 3.0 0.00 0.00 0.00 85 1016.7
20260508123510 40 321 0.0 0.0 0.00 0.00 0.00 88 1016.7
20260508123012 38 321 0.0 3.0 0.00 0.00 0.00 88 1016.7
20260508122506 38 321 1.0 3.0 0.00 0.00 0.00 89 1016.7
20260508122007 37 321 1.0 3.0 0.00 0.00 0.00 89 1016.8
20260508121546 37 321 1.0 3.0 0.00 0.00 0.00 90 1016.7
20260508121007 37 321 1.0 3.0 0.00 0.00 0.00 90 1016.7
20260508120509 36 321 2.0 3.0 0.00 0.00 0.00 90 1016.7
20260508120019 36 321 1.0 4.0 0.00 0.00 0.00 91 1016.6
20260508115508 35 321 1.0 4.0 0.00 0.00 0.00 91 1016.6
20260508115008 35 322 2.0 4.0 0.00 0.00 0.00 92 1016.5
20260508114523 35 299 1.0 4.0 0.00 0.00 0.00 92 1016.6
20260508114010 34 315 1.0 4.0 0.00 0.00 0.00 93 1016.5
20260508113512 34 317 2.0 4.0 0.00 0.00 0.00 93 1016.5
20260508113028 34 313 0.0 3.0 0.00 0.00 0.00 94 1016.5
20260508112511 33 313 1.0 3.0 0.00 0.00 0.00 94 1016.5
20260508112011 33 313 1.0 3.0 0.00 0.00 0.00 94 1016.4
20260508111528 33 313 1.0 4.0 0.00 0.00 0.00 95 1016.4
20260508111004 32 320 1.0 4.0 0.00 0.00 0.00 95 1016.4
20260508110503 32 309 2.0 4.0 0.00 0.00 0.00 95 1016.4
20260508110016 32 308 2.0 4.0 0.00 0.00 0.00 95 1016.4
20260508105509 32 299 2.0 4.0 0.00 0.00 0.00 95 1016.3
20260508105009 32 261 2.0 4.0 0.00 0.00 0.00 96 1016.3
20260508104526 31 282 1.0 4.0 0.00 0.00 0.00 95 1016.2
20260508104010 31 298 2.0 3.0 0.00 0.00 0.00 95 1016.2
20260508103509 31 298 0.0 3.0 0.00 0.00 0.00 95 1016.2
20260508103025 31 298 0.0 3.0 0.00 0.00 0.00 95 1016.0
20260508102508 31 298 2.0 3.0 0.00 0.00 0.00 95 1016.0
20260508102011 32 267 1.0 3.0 0.00 0.00 0.00 95 1016.0
20260508101528 31 284 1.0 4.0 0.00 0.00 0.00 95 1015.9
20260508101013 32 276 2.0 4.0 0.00 0.00 0.00 95 1015.8
20260508100510 32 289 1.0 4.0 0.00 0.00 0.00 95 1015.8
20260508100027 31 286 2.0 4.0 0.00 0.00 0.00 95 1015.8
20260508095503 31 269 3.0 4.0 0.00 0.00 0.00 95 1015.7
20260508095002 31 303 0.0 3.0 0.00 0.00 0.00 95 1015.6
20260508094503 32 279 1.0 4.0 0.00 0.00 0.00 95 1015.5
20260508094004 32 279 2.0 4.0 0.00 0.00 0.00 95 1015.6
20260508093502 32 282 1.0 3.0 0.00 0.00 0.00 95 1015.6
20260508093024 32 300 1.0 3.0 0.00 0.00 0.00 95 1015.6
20260508092502 32 293 2.0 4.0 0.00 0.00 0.00 95 1015.7
20260508092003 32 302 2.0 4.0 0.00 0.00 0.00 95 1015.7
20260508091512 32 285 2.0 3.0 0.00 0.01 0.00 95 1015.6
20260508091002 32 281 1.0 3.0 0.00 0.01 0.00 95 1015.6
20260508090505 32 288 1.0 2.0 0.00 0.01 0.00 95 1015.6
20260508090014 32 288 1.0 3.0 0.00 0.01 0.00 95 1015.6
20260508085503 32 283 1.0 3.0 0.00 0.01 0.00 95 1015.6
20260508085007 32 309 2.0 3.0 0.00 0.01 0.00 94 1015.6
20260508084516 32 276 2.0 3.0 0.00 0.01 0.00 95 1015.5
20260508084003 32 281 1.0 3.0 0.00 0.01 0.00 94 1015.5
20260508083503 32 295 1.0 3.0 0.00 0.01 0.00 94 1015.5
20260508083008 32 279 1.0 3.0 0.00 0.02 0.00 95 1015.5
20260508082503 33 298 2.0 3.0 0.00 0.02 0.00 94 1015.4
20260508082004 33 298 1.0 3.0 0.00 0.02 0.00 94 1015.4
20260508081503 33 275 0.0 3.0 0.00 0.02 0.00 94 1015.3
20260508081002 33 275 1.0 4.0 0.00 0.02 0.00 94 1015.2
20260508080502 33 280 1.0 6.0 0.00 0.02 0.00 94 1015.2
20260508080008 33 277 3.0 6.0 0.00 0.02 0.00 94 1015.2
20260508075509 33 274 2.0 4.0 0.00 0.02 0.00 94 1015.2
20260508075003 33 273 1.0 3.0 0.00 0.02 0.00 94 1015.2
20260508074513 33 300 2.0 3.0 0.00 0.02 0.00 94 1015.1
20260508074010 33 283 1.0 2.0 0.00 0.02 0.00 94 1015.1
20260508073507 33 283 0.0 3.0 0.00 0.02 0.00 94 1015.1
20260508073016 33 301 1.0 3.0 0.00 0.02 0.00 94 1015.3
20260508072507 33 301 1.0 3.0 0.00 0.02 0.00 94 1015.3
20260508072004 33 301 1.0 3.0 0.00 0.02 0.00 94 1015.3
20260508071506 33 298 1.0 3.0 0.00 0.02 0.00 94 1015.3
20260508071003 33 288 1.0 3.0 0.00 0.02 0.00 93 1015.3
20260508070504 34 301 2.0 4.0 0.00 0.02 0.00 93 1015.3
20260508070005 34 301 1.0 4.0 0.00 0.02 0.00 93 1015.4
20260508065504 34 301 2.0 4.0 0.00 0.02 0.00 93 1015.4
20260508065004 34 301 0.0 2.0 0.00 0.02 0.00 92 1015.3
20260508064534 34 301 1.0 2.0 0.00 0.02 0.00 92 1015.3
20260508064008 34 301 0.0 3.0 0.00 0.02 0.00 92 1015.3
20260508063505 34 301 1.0 3.0 0.00 0.02 0.00 92 1015.2
20260508063018 34 301 1.0 3.0 0.00 0.02 0.00 92 1015.2
20260508062508 35 294 0.0 2.0 0.00 0.02 0.00 92 1015.2
20260508062009 35 294 1.0 2.0 0.00 0.02 0.00 91 1015.2
20260508061525 35 294 0.0 3.0 0.00 0.02 0.00 91 1015.2
20260508061008 35 294 1.0 3.0 0.00 0.02 0.00 91 1015.2
20260508060509 35 294 1.0 3.0 0.00 0.02 0.00 91 1015.2
20260508060005 35 300 0.0 2.0 0.00 0.02 0.00 91 1015.2
20260508055507 36 300 0.0 3.0 0.00 0.02 0.00 90 1015.2
20260508055002 36 300 1.0 3.0 0.00 0.02 0.00 90 1015.2
20260508054510 36 300 1.0 3.0 0.00 0.02 0.00 90 1015.3
20260508054005 36 283 1.0 4.0 0.00 0.02 0.00 90 1015.3
20260508053505 36 295 1.0 4.0 0.00 0.02 0.00 90 1015.4
20260508053013 36 311 1.0 4.0 0.00 0.02 0.00 89 1015.4
20260508052511 36 311 1.0 3.0 0.00 0.02 0.00 89 1015.5
20260508052004 37 311 1.0 3.0 0.00 0.02 0.00 89 1015.6
20260508051518 37 311 1.0 3.0 0.00 0.02 0.00 89 1015.5
20260508051008 37 311 1.0 3.0 0.00 0.02 0.00 88 1015.5
20260508050511 37 282 1.0 3.0 0.00 0.02 0.00 88 1015.4
20260508050022 37 314 1.0 3.0 0.00 0.02 0.00 87 1015.4
20260508045505 38 314 2.0 3.0 0.00 0.03 0.00 87 1015.4
20260508045009 38 281 1.0 4.0 0.00 0.03 0.00 86 1015.4
20260508044526 38 304 2.0 4.0 0.00 0.03 0.00 86 1015.4
20260508044002 38 315 2.0 4.0 0.00 0.03 0.00 86 1015.3
20260508043502 38 272 2.0 5.0 0.00 0.03 0.00 86 1015.3
20260508043010 38 352 1.0 5.0 0.00 0.03 0.00 86 1015.2
20260508042506 39 277 3.0 6.0 0.00 0.03 0.00 85 1015.2
20260508042007 39 324 3.0 7.0 0.00 0.03 0.00 85 1015.2
20260508041517 39 317 2.0 7.0 0.00 0.03 0.00 84 1015.1
20260508041008 39 304 3.0 5.0 0.00 0.03 0.00 84 1015.1
20260508040505 39 277 3.0 6.0 0.00 0.03 0.00 85 1015.1
20260508040021 39 281 2.0 6.0 0.00 0.03 0.00 84 1015.0
20260508035507 40 296 3.0 7.0 0.00 0.03 0.03 84 1015.0
20260508035007 40 283 2.0 7.0 0.00 0.03 0.03 83 1015.0
20260508034526 40 283 1.0 7.0 0.00 0.03 0.03 83 1014.9
20260508034007 40 277 4.0 7.0 0.00 0.03 0.03 84 1014.8
20260508033510 40 319 1.0 6.0 0.00 0.03 0.03 84 1014.7
20260508033026 41 304 2.0 6.0 0.00 0.03 0.03 83 1014.7
20260508032508 41 284 3.0 6.0 0.00 0.03 0.03 82 1014.6
20260508032006 41 269 3.0 6.0 0.00 0.03 0.03 82 1014.6
20260508031514 41 319 2.0 7.0 0.00 0.03 0.03 82 1014.5
20260508031007 41 238 3.0 7.0 0.00 0.03 0.03 82 1014.4
20260508030506 41 300 3.0 6.0 0.00 0.03 0.03 82 1014.4
20260508030017 41 264 2.0 6.0 0.00 0.03 0.03 82 1014.4
20260508025506 41 315 3.0 5.0 0.00 0.03 0.03 82 1014.5
20260508025006 42 248 2.0 5.0 0.00 0.03 0.03 82 1014.3
20260508024527 42 332 1.0 5.0 0.00 0.03 0.03 82 1014.3
20260508024008 42 323 2.0 5.0 0.00 0.03 0.03 82 1014.2
20260508023506 42 308 3.0 5.0 0.00 0.03 0.03 83 1014.1
20260508023034 42 298 2.0 5.0 0.00 0.03 0.03 82 1014.1
20260508022510 42 320 2.0 5.0 0.00 0.03 0.03 83 1014.0
20260508022013 42 273 1.0 4.0 0.00 0.03 0.03 83 1013.9
20260508021527 43 299 1.0 3.0 0.00 0.03 0.03 82 1013.9
20260508021009 43 298 1.0 4.0 0.00 0.03 0.03 81 1013.9
20260508020505 43 298 1.0 4.0 0.00 0.03 0.03 81 1013.8
20260508020013 43 303 2.0 4.0 0.00 0.03 0.03 80 1013.8
20260508015502 44 277 1.0 3.0 0.00 0.03 0.03 79 1013.7
20260508015005 44 316 1.0 4.0 0.00 0.03 0.03 78 1013.7
20260508014503 44 316 2.0 4.0 0.00 0.03 0.03 77 1013.7
20260508014004 45 324 1.0 4.0 0.00 0.03 0.03 77 1013.6
20260508013504 45 316 2.0 4.0 0.00 0.03 0.03 75 1013.5
20260508013004 46 319 1.0 4.0 0.00 0.03 0.03 73 1013.4